P4EPF TFFM-TNCS

Flight info

Callsign P4EPF
Flight time N/A
Altitude 18000
Route PPR DCT BIMBO DCT SKB DCT GABAR
Aircraft BE60/L-SDFGRY/C

Departure

Time 2026-04-24 19:06
Airport Marie-Galante Airport (TFFM)

Arrival

Time N/A
Airport Juancho E. Yrausquin Airport (TNCS)
Time Latitude Longitude Altitude Speed Heading
2026-04-24 19:00 15.86928 -61.27191 18 ft 0 kts 167°
2026-04-24 19:03 15.86923 -61.27192 25 ft 2 kts 212°
2026-04-24 19:03 15.86923 -61.27224 21 ft 4 kts 299°
2026-04-24 19:03 15.86922 -61.27241 21 ft 2 kts 213°
2026-04-24 19:03 15.86896 -61.27238 20 ft 6 kts 169°
2026-04-24 19:04 15.86862 -61.27236 16 ft 8 kts 195°
2026-04-24 19:04 15.86832 -61.27311 17 ft 9 kts 257°
2026-04-24 19:04 15.86823 -61.27358 17 ft 12 kts 261°
2026-04-24 19:04 15.86807 -61.27461 19 ft 14 kts 255°
2026-04-24 19:05 15.86794 -61.27545 19 ft 8 kts 124°
2026-04-24 19:05 15.86811 -61.27417 18 ft 45 kts 79°
2026-04-24 19:05 15.86875 -61.27097 21 ft 86 kts 79°
2026-04-24 19:05 15.86991 -61.26372 165 ft 115 kts 85°
2026-04-24 19:06 15.87138 -61.25481 398 ft 133 kts 75°
2026-04-24 19:06 15.87628 -61.24692 870 ft 136 kts 35°
2026-04-24 19:06 15.88593 -61.24550 1191 ft 153 kts 342°
2026-04-24 19:06 15.89356 -61.25353 1515 ft 160 kts 303°
2026-04-24 19:07 15.89902 -61.26321 2025 ft 154 kts 297°
2026-04-24 19:07 15.90224 -61.27393 2395 ft 157 kts 279°
2026-04-24 19:07 15.90440 -61.28514 2705 ft 158 kts 282°
2026-04-24 19:07 15.90839 -61.29564 3104 ft 155 kts 298°
2026-04-24 19:08 15.91563 -61.30380 3418 ft 155 kts 322°
2026-04-24 19:08 15.92479 -61.31016 3621 ft 161 kts 326°
2026-04-24 19:08 15.93425 -61.31653 3917 ft 163 kts 326°
2026-04-24 19:08 15.94370 -61.32287 4173 ft 164 kts 326°
2026-04-24 19:09 15.95324 -61.32931 4426 ft 163 kts 326°
2026-04-24 19:09 15.96283 -61.33573 4684 ft 165 kts 325°
2026-04-24 19:09 15.97241 -61.34221 4938 ft 163 kts 324°
2026-04-24 19:09 15.98194 -61.34867 5191 ft 164 kts 325°
2026-04-24 19:10 15.99152 -61.35513 5436 ft 165 kts 324°
2026-04-24 19:10 16.00114 -61.36163 5691 ft 165 kts 323°
2026-04-24 19:10 16.01078 -61.36816 5930 ft 166 kts 323°
2026-04-24 19:10 16.02054 -61.37472 6152 ft 169 kts 324°
2026-04-24 19:11 16.03048 -61.38143 6368 ft 172 kts 324°
2026-04-24 19:11 16.04060 -61.38825 6567 ft 174 kts 323°
2026-04-24 19:11 16.05072 -61.39507 6769 ft 177 kts 323°
2026-04-24 19:11 16.06104 -61.40205 6990 ft 177 kts 324°
2026-04-24 19:12 16.07142 -61.40904 7216 ft 178 kts 324°
2026-04-24 19:12 16.08181 -61.41607 7455 ft 178 kts 324°
2026-04-24 19:12 16.09216 -61.42306 7742 ft 174 kts 324°
2026-04-24 19:12 16.10214 -61.42980 8102 ft 168 kts 324°
2026-04-24 19:13 16.10859 -61.43416 8322 ft 166 kts 323°
2026-04-24 19:13 16.12146 -61.44288 8739 ft 164 kts 323°
2026-04-24 19:13 16.13101 -61.44934 9057 ft 163 kts 324°
2026-04-24 19:13 16.14055 -61.45577 9329 ft 165 kts 324°
2026-04-24 19:14 16.15042 -61.46247 9505 ft 173 kts 326°
2026-04-24 19:14 16.16063 -61.46936 9722 ft 177 kts 324°
2026-04-24 19:14 16.17089 -61.47628 9921 ft 179 kts 326°
2026-04-24 19:14 16.18140 -61.48339 10113 ft 181 kts 324°
2026-04-24 19:15 16.19200 -61.49059 10326 ft 183 kts 324°
2026-04-24 19:15 16.20268 -61.49781 10543 ft 183 kts 326°
2026-04-24 19:15 16.21340 -61.50507 10779 ft 184 kts 325°
2026-04-24 19:15 16.22415 -61.51234 11014 ft 184 kts 325°
2026-04-24 19:16 16.24571 -61.52693 11491 ft 185 kts 323°
2026-04-24 19:16 16.25650 -61.53424 11729 ft 185 kts 323°
2026-04-24 19:16 16.26696 -61.54198 11952 ft 184 kts 313°
2026-04-24 19:17 16.27545 -61.55188 12195 ft 183 kts 309°
2026-04-24 19:17 16.28391 -61.56182 12429 ft 183 kts 310°
2026-04-24 19:17 16.29246 -61.57171 12664 ft 184 kts 309°
2026-04-24 19:17 16.30101 -61.58164 12900 ft 184 kts 310°
2026-04-24 19:18 16.30950 -61.59146 13136 ft 184 kts 309°
2026-04-24 19:18 16.31807 -61.60141 13376 ft 185 kts 309°
2026-04-24 19:18 16.32665 -61.61136 13619 ft 185 kts 309°
2026-04-24 19:18 16.33524 -61.62133 13852 ft 185 kts 309°
2026-04-24 19:19 16.34384 -61.63132 14069 ft 185 kts 309°
2026-04-24 19:19 16.35247 -61.64134 14281 ft 186 kts 309°
2026-04-24 19:19 16.36114 -61.65139 14501 ft 187 kts 309°
2026-04-24 19:19 16.36985 -61.66149 14714 ft 187 kts 309°
2026-04-24 19:20 16.37859 -61.67164 14930 ft 188 kts 309°
2026-04-24 19:20 16.38733 -61.68179 15149 ft 188 kts 309°
2026-04-24 19:20 16.39608 -61.69195 15369 ft 189 kts 309°
2026-04-24 19:20 16.40486 -61.70215 15588 ft 189 kts 309°
2026-04-24 19:21 16.41366 -61.71237 15818 ft 189 kts 309°
2026-04-24 19:21 16.42245 -61.72259 16043 ft 190 kts 309°
2026-04-24 19:21 16.43127 -61.73283 16273 ft 190 kts 308°
2026-04-24 19:21 16.44011 -61.74311 16507 ft 190 kts 308°
2026-04-24 19:22 16.44596 -61.74991 16661 ft 190 kts 308°
2026-04-24 19:22 16.45780 -61.76366 16979 ft 191 kts 308°
2026-04-24 19:22 16.46667 -61.77399 17218 ft 191 kts 308°
2026-04-24 19:22 16.47543 -61.78417 17454 ft 191 kts 308°
2026-04-24 19:23 16.48434 -61.79452 17697 ft 192 kts 308°
2026-04-24 19:23 16.49324 -61.80488 17929 ft 193 kts 308°
2026-04-24 19:23 16.50246 -61.81563 17953 ft 204 kts 308°
2026-04-24 19:23 16.51217 -61.82692 17962 ft 214 kts 308°
2026-04-24 19:24 16.52229 -61.83869 17958 ft 221 kts 308°
2026-04-24 19:24 16.53273 -61.85083 17956 ft 228 kts 308°
2026-04-24 19:24 16.54340 -61.86324 17954 ft 232 kts 309°
2026-04-24 19:24 16.55430 -61.87592 17956 ft 236 kts 309°
2026-04-24 19:25 16.56530 -61.88873 17957 ft 239 kts 309°
2026-04-24 19:25 16.57644 -61.90170 17958 ft 240 kts 309°
2026-04-24 19:25 16.58748 -61.91457 17959 ft 236 kts 308°
2026-04-24 19:25 16.59832 -61.92721 17964 ft 232 kts 309°
2026-04-24 19:26 16.60898 -61.93961 17955 ft 229 kts 308°
2026-04-24 19:26 16.61955 -61.95195 17950 ft 227 kts 308°
2026-04-24 19:26 16.63023 -61.96401 17956 ft 226 kts 312°
2026-04-24 19:26 16.64098 -61.97582 17955 ft 223 kts 308°
2026-04-24 19:27 16.65129 -61.98785 17961 ft 222 kts 309°
2026-04-24 19:27 16.66160 -61.99955 17964 ft 221 kts 309°
2026-04-24 19:27 16.67207 -62.01128 17964 ft 220 kts 309°
2026-04-24 19:27 16.68249 -62.02295 17966 ft 220 kts 309°
2026-04-24 19:28 16.69288 -62.03463 17969 ft 219 kts 309°
2026-04-24 19:28 16.70323 -62.04627 17968 ft 219 kts 309°
2026-04-24 19:28 16.71360 -62.05793 17973 ft 219 kts 309°
2026-04-24 19:28 16.72394 -62.06955 17978 ft 218 kts 309°
2026-04-24 19:29 16.74457 -62.09276 17980 ft 218 kts 309°
2026-04-24 19:29 16.75486 -62.10434 17976 ft 218 kts 309°
2026-04-24 19:29 16.76516 -62.11592 17983 ft 218 kts 309°
2026-04-24 19:30 16.77545 -62.12751 17983 ft 217 kts 309°
2026-04-24 19:30 16.78573 -62.13907 17978 ft 217 kts 309°
2026-04-24 19:30 16.79601 -62.15064 17983 ft 217 kts 309°
2026-04-24 19:30 16.80629 -62.16223 17982 ft 217 kts 309°
2026-04-24 19:31 16.81659 -62.17382 17983 ft 217 kts 309°
2026-04-24 19:31 16.82685 -62.18538 17976 ft 217 kts 309°
2026-04-24 19:31 16.83713 -62.19695 17983 ft 217 kts 309°
2026-04-24 19:31 16.84742 -62.20855 17983 ft 217 kts 309°
2026-04-24 19:32 16.85756 -62.21998 17981 ft 217 kts 309°
2026-04-24 19:32 16.86784 -62.23157 17986 ft 217 kts 309°
2026-04-24 19:32 16.87809 -62.24313 17951 ft 217 kts 309°
2026-04-24 19:32 16.88837 -62.25471 17953 ft 217 kts 309°
2026-04-24 19:33 16.89862 -62.26628 17945 ft 217 kts 309°
2026-04-24 19:33 16.90888 -62.27784 17947 ft 217 kts 309°
2026-04-24 19:33 16.91915 -62.28943 17945 ft 217 kts 309°
2026-04-24 19:33 16.92943 -62.30103 17947 ft 217 kts 309°
2026-04-24 19:34 16.93968 -62.31260 17944 ft 217 kts 309°
2026-04-24 19:34 16.94995 -62.32418 17947 ft 217 kts 309°
2026-04-24 19:34 16.96023 -62.33579 17943 ft 217 kts 309°
2026-04-24 19:34 16.97049 -62.34738 17948 ft 217 kts 309°
2026-04-24 19:35 16.98063 -62.35882 17955 ft 217 kts 309°
2026-04-24 19:35 16.99091 -62.37044 17955 ft 217 kts 309°
2026-04-24 19:35 17.00118 -62.38203 17951 ft 217 kts 309°
2026-04-24 19:35 17.01143 -62.39363 17956 ft 217 kts 309°
2026-04-24 19:36 17.02171 -62.40524 17954 ft 217 kts 309°
2026-04-24 19:36 17.03198 -62.41684 17952 ft 217 kts 309°
2026-04-24 19:36 17.04224 -62.42844 17950 ft 217 kts 309°
2026-04-24 19:36 17.05252 -62.44006 17957 ft 217 kts 309°
2026-04-24 19:37 17.06279 -62.45168 17954 ft 217 kts 309°
2026-04-24 19:37 17.07307 -62.46330 17953 ft 217 kts 309°
2026-04-24 19:37 17.08335 -62.47494 17955 ft 217 kts 309°
2026-04-24 19:37 17.09360 -62.48653 17963 ft 217 kts 309°
2026-04-24 19:38 17.10387 -62.49815 17967 ft 217 kts 309°
2026-04-24 19:38 17.11412 -62.50975 17967 ft 217 kts 309°
2026-04-24 19:38 17.12435 -62.52133 17968 ft 217 kts 309°
2026-04-24 19:38 17.13459 -62.53292 17967 ft 217 kts 309°
2026-04-24 19:39 17.14482 -62.54451 17966 ft 217 kts 309°
2026-04-24 19:39 17.15496 -62.55599 17961 ft 218 kts 308°
2026-04-24 19:39 17.16523 -62.56763 17962 ft 217 kts 309°
2026-04-24 19:39 17.17546 -62.57924 17966 ft 217 kts 309°
2026-04-24 19:40 17.18573 -62.59087 17966 ft 218 kts 309°
2026-04-24 19:40 17.19600 -62.60251 17965 ft 218 kts 309°
2026-04-24 19:40 17.20628 -62.61416 17964 ft 218 kts 309°
2026-04-24 19:40 17.21657 -62.62582 17961 ft 218 kts 309°
2026-04-24 19:41 17.22720 -62.63790 17600 ft 233 kts 309°
2026-04-24 19:41 17.23847 -62.65069 17271 ft 244 kts 309°
2026-04-24 19:41 17.25019 -62.66394 16968 ft 251 kts 310°
2026-04-24 19:41 17.26218 -62.67753 16635 ft 256 kts 310°
2026-04-24 19:42 17.27435 -62.69134 16306 ft 260 kts 310°
2026-04-24 19:42 17.28667 -62.70532 15997 ft 262 kts 310°
2026-04-24 19:42 17.29883 -62.71924 15713 ft 263 kts 308°
2026-04-24 19:42 17.30759 -62.73572 15409 ft 259 kts 285°
2026-04-24 19:43 17.31114 -62.75393 15098 ft 253 kts 278°
2026-04-24 19:43 17.31418 -62.77220 14712 ft 252 kts 278°
2026-04-24 19:43 17.31724 -62.78998 14463 ft 246 kts 279°
2026-04-24 19:43 17.32026 -62.80745 14216 ft 242 kts 278°
2026-04-24 19:44 17.32323 -62.82466 13939 ft 239 kts 278°
2026-04-24 19:44 17.32615 -62.84165 13668 ft 236 kts 278°
2026-04-24 19:44 17.32905 -62.85850 13371 ft 234 kts 278°
2026-04-24 19:44 17.33193 -62.87522 13051 ft 233 kts 278°
2026-04-24 19:45 17.33483 -62.89210 12635 ft 237 kts 278°
2026-04-24 19:45 17.33777 -62.90918 12209 ft 239 kts 278°
2026-04-24 19:45 17.34072 -62.92636 11801 ft 240 kts 278°
2026-04-24 19:45 17.34369 -62.94359 11391 ft 241 kts 278°
2026-04-24 19:46 17.34666 -62.96083 10992 ft 240 kts 278°
2026-04-24 19:46 17.34956 -62.97780 10604 ft 240 kts 279°
2026-04-24 19:46 17.35375 -62.99462 10207 ft 240 kts 295°
2026-04-24 19:46 17.36420 -63.00823 9808 ft 242 kts 320°
2026-04-24 19:47 17.37783 -63.01858 9388 ft 241 kts 324°
2026-04-24 19:47 17.39148 -63.02870 8983 ft 239 kts 323°
2026-04-24 19:47 17.40480 -63.03874 8460 ft 235 kts 323°
2026-04-24 19:47 17.41806 -63.04878 7871 ft 236 kts 323°
2026-04-24 19:48 17.43139 -63.05883 7291 ft 235 kts 324°
2026-04-24 19:48 17.44445 -63.06867 6746 ft 233 kts 324°
2026-04-24 19:48 17.47064 -63.08845 5604 ft 231 kts 324°
2026-04-24 19:49 17.48708 -63.10085 4900 ft 229 kts 324°
2026-04-24 19:49 17.50220 -63.11227 4232 ft 225 kts 324°
2026-04-24 19:50 17.53947 -63.14041 2884 ft 207 kts 327°
2026-04-24 19:50 17.55240 -63.14606 2652 ft 198 kts 345°
2026-04-24 19:51 17.57868 -63.15498 2173 ft 199 kts 338°
2026-04-24 19:51 17.59116 -63.16070 2018 ft 194 kts 338°
2026-04-24 19:52 17.61519 -63.17200 1809 ft 187 kts 337°
2026-04-24 19:52 17.62694 -63.17756 1687 ft 184 kts 337°
2026-04-24 19:52 17.63485 -63.18127 1598 ft 184 kts 337°
2026-04-24 19:52 17.64624 -63.18703 1508 ft 184 kts 334°
2026-04-24 19:53 17.65723 -63.19345 1498 ft 179 kts 329°
2026-04-24 19:53 17.66754 -63.20056 1493 ft 177 kts 327°
2026-04-24 19:53 17.67891 -63.22117 1058 ft 162 kts 248°
2026-04-24 19:54 17.67223 -63.22936 878 ft 144 kts 215°
2026-04-24 19:54 17.66416 -63.23434 768 ft 123 kts 201°
2026-04-24 19:54 17.65625 -63.23635 632 ft 115 kts 175°
2026-04-24 19:54 17.64963 -63.23295 499 ft 107 kts 121°
2026-04-24 19:55 17.64816 -63.22828 364 ft 100 kts 103°
2026-04-24 19:55 17.64536 -63.22052 128 ft 60 kts 113°